FENGYUN 1C DEB, 30267

Orbit data source: Space-Track

FENGYUN 1C DEB, 30267 is space debris in SSO originally from a launch on Mon, 10 May 1999 UTC launched from the Taiyaun Space Center, China (TSC). Fengyun 1C debris stems from the Chinese weather satellite Fengyun-1C, which was intentionally destroyed by a Chinese anti-satellite missile in 2007. This event dramatically increased the amount of space debris, with thousands of trackable fragments posing hazards to satellites and human spaceflight. The Fengyun 1C debris cloud has become a focal point in discussions about space sustainability and the need for international regulations to prevent the creation of new debris.

Loading next visibility...
Identifier
30267, 1999-025YC
Orbit
SSO
Country
Flag of CNCN / PRC
Related business
Manufacturer
Unknown
Mission
Spacecraft
Bus & Motor
Unknown
Mass
Unknown
Launch date (UTC)
1999-05-10 (26 years ago)
Launch vehicle
Unknown
Launch site
Taiyaun Space Center, China (TSC)
Object type
Payload
Rocket body
Debris
Shape & HBR
Unknown shape, 0.1 m
Radar Cross Section
Small (<0.1 m²)

Expand to show TLE details & history
Last TLE update: 14 hours ago

TLE from 14 hours ago
0 FENGYUN 1C DEB
1 30267U 99025YC  25309.17018097  .00003200  00000-0  14104-2 0  9992
2 30267  98.8524  20.1172 0056932 353.3478   6.6937 14.23231269967609
Epoch: 2025-11-05T04:05Z
TLE epoch observation values (Epoch: 2025-11-05T04:05:03.635Z)
Latitude
-0.00014°
Longitude
-85.79462°
Altitude
776.685 km
Speed
7.487 km/s
True Right ascension
01h 20m 28s
True Declination
0° 00' 00"
Sunlit
Object was in full shadow at epoch
Visualization orbit readout
Latitude
Unknown
Longitude
Unknown
Altitude
Unknown
Speed
Unknown
Apparent Right ascension
Unknown
Apparent Declination
Unknown
Sunlit
N/A
Visualization observer readout
Local Sidereal Time
14:13:03
Azimuth
Unknown
Elevation
Unknown
Doppler factor
Unknown
Orbital elements
Apogee altitude
852.539 km
Perigee altitude
770.674 km
Semi-major axis
7,189.744 km
Eccentricity
0.00569
Inclination
98.8524°
RAAN
20.1172°
Arg. of periapsis
353.3478°
True anomaly
6.77029°
Mean anomaly
6.6937°
Eccentric anomaly
6.73194°
Mean motion
3.56019 °/min
Orbital period
101.12 mins
BSTAR
0.0014104
Loading maneuver chart data...
Computing Atmospheric mass density...

Documentation

Showing up to 5 results
|